| time (UTC) | temp C | wind direction | speed KPH | gust KPH | rain 1hr cm | rain 24hr cm | rain mn cm | humidity % | barometer mb |
| 20260904141305 | 19 | 168 | 4.8 | 8.0 | 0.00 | 0.00 | 0.00 | 50 | 999.7 |
| 20260904140804 | 19 | 150 | 1.6 | 4.8 | 0.00 | 0.00 | 0.00 | 51 | 999.7 |
| 20260904140305 | 18 | 168 | 3.2 | 8.0 | 0.00 | 0.00 | 0.00 | 52 | 999.5 |
| 20260904135306 | 18 | 183 | 3.2 | 4.8 | 0.00 | 0.00 | 0.00 | 52 | 999.3 |
| 20260904133804 | 17 | 165 | 4.8 | 11.3 | 0.00 | 0.00 | 0.00 | 53 | 999.3 |
| 20260904133305 | 17 | 192 | 4.8 | 8.0 | 0.00 | 0.00 | 0.00 | 54 | 999.2 |
| 20260904132306 | 16 | 172 | 3.2 | 9.7 | 0.00 | 0.00 | 0.00 | 60 | 999.2 |
| 20260904131805 | 15 | 159 | 0.0 | 3.2 | 0.00 | 0.00 | 0.00 | 63 | 999.2 |
| 20260904130805 | 15 | 193 | 0.0 | 3.2 | 0.00 | 0.00 | 0.00 | 64 | 999.2 |
| 20260904130304 | 15 | 193 | 1.6 | 3.2 | 0.00 | 0.00 | 0.00 | 65 | 999.1 |
| 20260904125306 | 15 | 193 | 0.0 | 0.0 | 0.00 | 0.00 | 0.00 | 65 | 998.8 |
| 20260904123805 | 15 | 193 | 1.6 | 4.8 | 0.00 | 0.00 | 0.00 | 65 | 998.7 |
| 20260904123304 | 15 | 193 | 3.2 | 3.2 | 0.00 | 0.00 | 0.00 | 66 | 998.6 |
| 20260904121805 | 15 | 200 | 1.6 | 3.2 | 0.00 | 0.00 | 0.00 | 65 | 998.6 |
| 20260904120305 | 15 | 200 | 1.6 | 3.2 | 0.00 | 0.00 | 0.00 | 62 | 998.4 |
| 20260904113805 | 15 | 199 | 1.6 | 4.8 | 0.00 | 0.00 | 0.00 | 65 | 998.3 |
| 20260904112805 | 15 | 225 | 3.2 | 4.8 | 0.00 | 0.00 | 0.00 | 66 | 998.2 |
| 20260904111805 | 15 | 242 | 3.2 | 4.8 | 0.00 | 0.00 | 0.00 | 65 | 998.2 |
| 20260904111305 | 15 | 242 | 0.0 | 3.2 | 0.00 | 0.00 | 0.00 | 64 | 998.0 |
| 20260904110805 | 15 | 242 | 1.6 | 3.2 | 0.00 | 0.00 | 0.00 | 64 | 997.9 |
| 20260904105805 | 15 | 242 | 1.6 | 3.2 | 0.00 | 0.00 | 0.00 | 62 | 998.0 |
| 20260904104305 | 16 | 242 | 0.0 | 0.0 | 0.00 | 0.00 | 0.00 | 59 | 997.9 |
| 20260904103305 | 16 | 242 | 1.6 | 3.2 | 0.00 | 0.00 | 0.00 | 58 | 997.7 |
| 20260904102306 | 16 | 242 | 1.6 | 3.2 | 0.00 | 0.00 | 0.00 | 56 | 997.6 |
| 20260904101804 | 16 | 242 | 1.6 | 3.2 | 0.00 | 0.00 | 0.00 | 56 | 997.6 |
| 20260904101304 | 17 | 242 | 0.0 | 1.6 | 0.00 | 0.00 | 0.00 | 55 | 997.4 |
| 20260904100805 | 16 | 242 | 1.6 | 3.2 | 0.00 | 0.00 | 0.00 | 55 | 997.4 |
| 20260904095805 | 16 | 252 | 0.0 | 3.2 | 0.00 | 0.00 | 0.00 | 57 | 997.4 |
| 20260904093305 | 16 | 252 | 0.0 | 3.2 | 0.00 | 0.00 | 0.00 | 55 | 997.3 |
| 20260904092805 | 16 | 252 | 1.6 | 3.2 | 0.00 | 0.00 | 0.00 | 55 | 997.3 |
| 20260904090305 | 17 | 285 | 1.6 | 4.8 | 0.00 | 0.00 | 0.00 | 52 | 997.1 |
| 20260904083804 | 17 | 315 | 3.2 | 4.8 | 0.00 | 0.00 | 0.00 | 54 | 997.0 |
| 20260904083305 | 17 | 304 | 3.2 | 8.0 | 0.00 | 0.00 | 0.00 | 56 | 997.0 |
| 20260904081304 | 17 | 215 | 0.0 | 0.0 | 0.00 | 0.00 | 0.00 | 56 | 996.9 |
| 20260904075804 | 17 | 215 | 1.6 | 3.2 | 0.00 | 0.00 | 0.00 | 54 | 996.9 |
| 20260904072804 | 18 | 200 | 3.2 | 4.8 | 0.00 | 0.00 | 0.00 | 51 | 997.1 |
| 20260904071305 | 18 | 0 | 0.0 | 3.2 | 0.00 | 0.00 | 0.00 | 50 | 997.0 |
| 20260904070805 | 18 | 0 | 1.6 | 4.8 | 0.00 | 0.00 | 0.00 | 50 | 997.1 |
| 20260904065805 | 18 | 127 | 4.8 | 8.0 | 0.00 | 0.00 | 0.00 | 50 | 997.1 |
| 20260904064804 | 19 | 163 | 3.2 | 4.8 | 0.00 | 0.00 | 0.00 | 48 | 997.3 |
| 20260904064304 | 19 | 181 | 0.0 | 0.0 | 0.00 | 0.00 | 0.00 | 48 | 997.1 |
| 20260904063805 | 20 | 144 | 3.2 | 4.8 | 0.00 | 0.00 | 0.00 | 47 | 997.3 |
| 20260904063305 | 19 | 180 | 0.0 | 1.6 | 0.00 | 0.00 | 0.00 | 48 | 997.2 |
| 20260904062805 | 20 | 180 | 1.6 | 3.2 | 0.00 | 0.00 | 0.00 | 47 | 997.2 |
| 20260904061304 | 20 | 177 | 1.6 | 8.0 | 0.00 | 0.00 | 0.00 | 45 | 997.2 |
| 20260904060816 | 20 | 245 | 3.2 | 8.0 | 0.00 | 0.00 | 0.00 | 45 | 997.2 |
| 20260904054804 | 21 | 197 | 3.2 | 8.0 | 0.00 | 0.00 | 0.00 | 42 | 997.4 |
| 20260904053804 | 21 | 172 | 3.2 | 4.8 | 0.00 | 0.00 | 0.00 | 43 | 997.3 |
| 20260904053305 | 21 | 175 | 3.2 | 8.0 | 0.00 | 0.00 | 0.00 | 43 | 997.3 |
| 20260904052804 | 21 | 182 | 6.4 | 9.7 | 0.00 | 0.00 | 0.00 | 43 | 997.3 |
| 20260904052307 | 21 | 156 | 3.2 | 12.9 | 0.00 | 0.00 | 0.00 | 42 | 997.3 |
| 20260904051805 | 21 | 144 | 6.4 | 12.9 | 0.00 | 0.00 | 0.00 | 41 | 997.2 |
| 20260904051305 | 21 | 129 | 11.3 | 19.3 | 0.00 | 0.00 | 0.00 | 42 | 997.0 |
| 20260904050805 | 21 | 134 | 9.7 | 14.5 | 0.00 | 0.05 | 0.00 | 41 | 996.9 |
| 20260904045804 | 22 | 143 | 4.8 | 8.0 | 0.00 | 0.30 | 0.00 | 39 | 996.8 |
| 20260904045307 | 22 | 191 | 3.2 | 8.0 | 0.00 | 0.33 | 0.00 | 38 | 996.7 |
| 20260904044805 | 22 | 200 | 4.8 | 9.7 | 0.00 | 0.33 | 0.00 | 39 | 996.5 |
| 20260904043804 | 22 | 229 | 4.8 | 11.3 | 0.00 | 0.33 | 0.00 | 38 | 996.4 |
| 20260904042805 | 22 | 274 | 6.4 | 12.9 | 0.00 | 0.33 | 0.00 | 38 | 996.4 |
| 20260904042306 | 22 | 245 | 6.4 | 11.3 | 0.00 | 0.33 | 0.00 | 38 | 996.5 |
| 20260904040805 | 22 | 241 | 6.4 | 11.3 | 0.00 | 0.33 | 0.00 | 39 | 996.6 |
| 20260904040304 | 22 | 202 | 4.8 | 11.3 | 0.00 | 0.33 | 0.00 | 39 | 996.6 |
| 20260904035804 | 22 | 254 | 6.4 | 11.3 | 0.00 | 0.33 | 0.00 | 38 | 996.6 |
| 20260904035306 | 22 | 244 | 4.8 | 9.7 | 0.00 | 0.33 | 0.00 | 37 | 996.7 |
| 20260904034805 | 22 | 259 | 3.2 | 4.8 | 0.00 | 0.33 | 0.00 | 36 | 996.5 |
| 20260904032805 | 23 | 261 | 3.2 | 8.0 | 0.00 | 0.33 | 0.00 | 34 | 996.5 |
| 20260904032306 | 23 | 268 | 1.6 | 4.8 | 0.00 | 0.33 | 0.00 | 33 | 996.5 |
| 20260904031304 | 24 | 252 | 4.8 | 9.7 | 0.00 | 0.33 | 0.00 | 30 | 996.4 |
| 20260904030805 | 24 | 284 | 4.8 | 8.0 | 0.00 | 0.33 | 0.00 | 30 | 996.4 |
| 20260904030304 | 25 | 36 | 4.8 | 12.9 | 0.00 | 0.33 | 0.00 | 29 | 996.2 |
| 20260904025306 | 26 | 64 | 9.7 | 16.1 | 0.00 | 0.33 | 0.00 | 27 | 996.1 |
| 20260904024804 | 26 | 61 | 9.7 | 16.1 | 0.00 | 0.33 | 0.00 | 26 | 996.2 |
| 20260904022306 | 26 | 55 | 8.0 | 12.9 | 0.00 | 0.33 | 0.00 | 25 | 995.9 |
| 20260904021804 | 27 | 75 | 4.8 | 9.7 | 0.00 | 0.33 | 0.00 | 25 | 995.9 |
| 20260904021305 | 27 | 67 | 4.8 | 12.9 | 0.00 | 0.33 | 0.00 | 25 | 995.8 |
| 20260904013804 | 27 | 22 | 4.8 | 9.7 | 0.00 | 0.33 | 0.00 | 24 | 995.8 |
| 20260904013305 | 27 | 20 | 4.8 | 11.3 | 0.00 | 0.33 | 0.00 | 25 | 995.8 |
| 20260904012805 | 28 | 34 | 4.8 | 11.3 | 0.00 | 0.33 | 0.00 | 23 | 995.9 |
| 20260904011804 | 28 | 56 | 6.4 | 12.9 | 0.00 | 0.33 | 0.00 | 23 | 995.9 |
| 20260904011305 | 28 | 43 | 8.0 | 11.3 | 0.00 | 0.33 | 0.00 | 23 | 996.0 |
| 20260904005805 | 30 | 40 | 8.0 | 19.3 | 0.00 | 0.33 | 0.00 | 22 | 995.9 |
| 20260904004305 | 30 | 49 | 8.0 | 16.1 | 0.00 | 0.33 | 0.00 | 22 | 996.1 |
| 20260904003804 | 30 | 65 | 6.4 | 16.1 | 0.00 | 0.33 | 0.00 | 22 | 996.0 |
| 20260904003304 | 31 | 56 | 8.0 | 16.1 | 0.00 | 0.33 | 0.00 | 21 | 996.0 |
| 20260904002306 | 31 | 70 | 14.5 | 24.1 | 0.00 | 0.33 | 0.00 | 21 | 996.0 |
| 20260904000804 | 31 | 79 | 9.7 | 20.9 | 0.00 | 0.33 | 0.00 | 21 | 995.9 |
| 20260904000304 | 31 | 80 | 12.9 | 22.5 | 0.00 | 0.33 | 0.00 | 20 | 995.9 |
| 20260903234305 | 31 | 89 | 11.3 | 24.1 | 0.00 | 0.33 | 0.00 | 21 | 996.0 |
| 20260903233805 | 31 | 76 | 11.3 | 20.9 | 0.00 | 0.33 | 0.00 | 21 | 995.9 |
| 20260903233305 | 31 | 103 | 14.5 | 24.1 | 0.00 | 0.33 | 0.00 | 20 | 995.9 |
| 20260903232805 | 31 | 99 | 14.5 | 19.3 | 0.00 | 0.33 | 0.00 | 20 | 996.0 |
| 20260903231805 | 32 | 100 | 11.3 | 20.9 | 0.00 | 0.33 | 0.00 | 21 | 995.9 |
| 20260903231305 | 32 | 106 | 14.5 | 24.1 | 0.00 | 0.33 | 0.00 | 19 | 995.9 |
| 20260903230804 | 32 | 74 | 8.0 | 20.9 | 0.00 | 0.33 | 0.00 | 20 | 995.9 |
| 20260903225306 | 33 | 71 | 14.5 | 24.1 | 0.00 | 0.33 | 0.00 | 18 | 995.9 |
| 20260903224805 | 33 | 118 | 9.7 | 19.3 | 0.00 | 0.33 | 0.00 | 19 | 995.9 |
| 20260903220804 | 32 | 92 | 4.8 | 9.7 | 0.00 | 0.33 | 0.00 | 19 | 996.2 |
| 20260903215804 | 32 | 26 | 4.8 | 19.3 | 0.00 | 0.33 | 0.00 | 19 | 996.3 |
| 20260903215306 | 32 | 61 | 8.0 | 20.9 | 0.00 | 0.33 | 0.00 | 19 | 996.4 |
| 20260903214304 | 32 | 347 | 6.4 | 11.3 | 0.00 | 0.33 | 0.00 | 18 | 996.5 |
| 20260903213305 | 32 | 70 | 9.7 | 19.3 | 0.00 | 0.33 | 0.00 | 19 | 996.6 |
| 20260903212804 | 32 | 39 | 11.3 | 20.9 | 0.00 | 0.33 | 0.00 | 21 | 996.6 |
| 20260903211804 | 31 | 60 | 8.0 | 19.3 | 0.00 | 0.33 | 0.00 | 20 | 996.7 |
| 20260903211305 | 31 | 54 | 14.5 | 24.1 | 0.00 | 0.33 | 0.00 | 20 | 997.0 |
| 20260903210305 | 31 | 56 | 8.0 | 20.9 | 0.00 | 0.33 | 0.00 | 21 | 997.1 |
| 20260903205805 | 31 | 46 | 8.0 | 12.9 | 0.00 | 0.33 | 0.00 | 21 | 997.2 |
| 20260903204804 | 31 | 104 | 9.7 | 19.3 | 0.00 | 0.33 | 0.00 | 20 | 997.4 |
| 20260903204305 | 32 | 70 | 11.3 | 22.5 | 0.00 | 0.33 | 0.00 | 21 | 997.5 |
| 20260903203805 | 31 | 86 | 8.0 | 20.9 | 0.00 | 0.33 | 0.00 | 21 | 997.4 |
| 20260903202306 | 31 | 18 | 8.0 | 14.5 | 0.00 | 0.33 | 0.00 | 22 | 997.5 |
| 20260903201805 | 31 | 130 | 8.0 | 16.1 | 0.00 | 0.33 | 0.00 | 19 | 997.6 |
| 20260903201304 | 31 | 65 | 8.0 | 19.3 | 0.00 | 0.33 | 0.00 | 18 | 997.8 |
| 20260903200805 | 31 | 83 | 9.7 | 20.9 | 0.00 | 0.33 | 0.00 | 21 | 997.8 |
| 20260903195804 | 31 | 29 | 9.7 | 19.3 | 0.00 | 0.33 | 0.00 | 21 | 998.0 |
| 20260903194804 | 30 | 48 | 9.7 | 16.1 | 0.00 | 0.33 | 0.00 | 22 | 998.2 |
| 20260903194304 | 30 | 28 | 4.8 | 20.9 | 0.00 | 0.33 | 0.00 | 21 | 998.2 |
| 20260903193305 | 30 | 72 | 14.5 | 24.1 | 0.00 | 0.33 | 0.00 | 22 | 998.2 |
| 20260903192804 | 30 | 87 | 9.7 | 19.3 | 0.00 | 0.33 | 0.00 | 23 | 998.3 |
| 20260903191304 | 30 | 199 | 3.2 | 16.1 | 0.00 | 0.33 | 0.00 | 25 | 998.5 |
| 20260903190304 | 30 | 106 | 9.7 | 19.3 | 0.00 | 0.33 | 0.00 | 22 | 998.6 |
| 20260903185306 | 30 | 78 | 6.4 | 19.3 | 0.00 | 0.33 | 0.00 | 23 | 998.7 |
| 20260903184805 | 30 | 111 | 8.0 | 14.5 | 0.00 | 0.33 | 0.00 | 25 | 998.7 |
| 20260903184304 | 30 | 83 | 1.6 | 4.8 | 0.00 | 0.33 | 0.00 | 25 | 998.9 |
| 20260903183805 | 30 | 119 | 9.7 | 19.3 | 0.00 | 0.33 | 0.00 | 24 | 999.0 |
| 20260903182306 | 29 | 85 | 9.7 | 12.9 | 0.00 | 0.33 | 0.00 | 24 | 999.4 |
| 20260903181804 | 30 | 100 | 9.7 | 19.3 | 0.00 | 0.33 | 0.00 | 25 | 999.6 |
| 20260903181304 | 30 | 105 | 8.0 | 14.5 | 0.00 | 0.33 | 0.00 | 27 | 999.6 |
| 20260903180805 | 28 | 94 | 6.4 | 14.5 | 0.00 | 0.33 | 0.00 | 28 | 999.7 |
| 20260903175805 | 28 | 28 | 6.4 | 9.7 | 0.00 | 0.33 | 0.00 | 24 | 999.8 |
| 20260903174305 | 28 | 42 | 4.8 | 12.9 | 0.00 | 0.33 | 0.00 | 26 | 1000.0 |
| 20260903173804 | 28 | 58 | 6.4 | 12.9 | 0.00 | 0.33 | 0.00 | 28 | 1000.1 |
| 20260903173304 | 28 | 89 | 8.0 | 11.3 | 0.00 | 0.33 | 0.00 | 28 | 1000.1 |
| 20260903172804 | 27 | 61 | 4.8 | 11.3 | 0.00 | 0.33 | 0.00 | 28 | 1000.2 |
| 20260903172306 | 28 | 92 | 9.7 | 19.3 | 0.00 | 0.33 | 0.00 | 29 | 1000.2 |
| 20260903171805 | 27 | 114 | 11.3 | 14.5 | 0.00 | 0.33 | 0.00 | 29 | 1000.2 |
| 20260903151304 | 21 | 358 | 8.0 | 11.3 | 0.00 | 0.33 | 0.00 | 48 | 1000.2 |
| 20260903150304 | 21 | 183 | 6.4 | 9.7 | 0.00 | 0.33 | 0.00 | 51 | 1011.2 |
| 20260903145804 | 21 | 163 | 4.8 | 9.7 | 0.00 | 0.33 | 0.00 | 50 | 1011.2 |
| 20260903144804 | 20 | 164 | 4.8 | 9.7 | 0.00 | 0.33 | 0.00 | 54 | 1011.2 |
| 20260903143804 | 19 | 175 | 4.8 | 11.3 | 0.00 | 0.33 | 0.00 | 56 | 1011.2 |
| 20260903143304 | 19 | 179 | 6.4 | 14.5 | 0.00 | 0.33 | 0.00 | 57 | 1011.2 |
| 20260903142804 | 18 | 181 | 6.4 | 11.3 | 0.00 | 0.33 | 0.00 | 58 | 1011.2 |
| 20260903142306 | 18 | 154 | 4.8 | 12.9 | 0.00 | 0.33 | 0.00 | 58 | 1011.2 |